Time,TemperatureF,DewpointF,PressureIn,WindDirection,WindDirectionDegrees,WindSpeedMPH,WindSpeedGustMPH,Humidity,HourlyPrecipIn,Conditions,Clouds,dailyrainin,SoftwareType,DateUTC
2013-08-14 00:00:00,50.6,48.1,30.23,NW,315,0.0,0.0,91,0.00,,,0.00,Wunderground v.1.15,2013-08-14 05:00:00,
2013-08-14 00:05:00,50.5,48.0,30.23,NW,315,0.0,0.0,91,0.00,,,0.00,Wunderground v.1.15,2013-08-14 05:05:00,
2013-08-14 00:10:00,50.3,47.8,30.23,NW,315,0.0,0.0,91,0.00,,,0.00,Wunderground v.1.15,2013-08-14 05:10:00,
2013-08-14 00:15:00,50.2,47.7,30.23,NW,315,0.0,0.0,91,0.00,,,0.00,Wunderground v.1.15,2013-08-14 05:15:00,
2013-08-14 00:20:00,50.1,47.6,30.23,NW,315,0.0,0.0,91,0.00,,,0.00,Wunderground v.1.15,2013-08-14 05:20:00,
2013-08-14 00:30:00,49.9,47.4,30.23,NW,315,0.0,0.0,91,0.00,,,0.00,Wunderground v.1.15,2013-08-14 05:30:00,
2013-08-14 00:35:00,49.8,47.3,30.23,NW,315,0.0,0.0,91,0.00,,,0.00,Wunderground v.1.15,2013-08-14 05:35:00,
2013-08-14 00:40:00,49.7,47.2,30.23,NW,315,0.0,0.0,91,0.00,,,0.00,Wunderground v.1.15,2013-08-14 05:40:00,
2013-08-14 00:45:00,49.6,47.1,30.23,NW,315,0.0,0.0,91,0.00,,,0.00,Wunderground v.1.15,2013-08-14 05:45:00,
2013-08-14 00:50:00,49.6,47.1,30.23,NW,315,0.0,0.0,91,0.00,,,0.00,Wunderground v.1.15,2013-08-14 05:50:00,
2013-08-14 01:00:00,49.4,46.9,30.23,NW,315,0.0,0.0,91,0.00,,,0.00,Wunderground v.1.15,2013-08-14 06:00:00,
2013-08-14 01:05:00,49.3,46.8,30.24,NW,315,0.0,0.0,91,0.00,,,0.00,Wunderground v.1.15,2013-08-14 06:05:00,
2013-08-14 01:15:00,49.1,46.6,30.24,NW,315,0.0,0.0,91,0.00,,,0.00,Wunderground v.1.15,2013-08-14 06:15:00,
2013-08-14 01:20:00,49.0,46.8,30.24,NW,315,0.0,0.0,92,0.00,,,0.00,Wunderground v.1.15,2013-08-14 06:20:00,
2013-08-14 01:25:00,49.0,46.8,30.24,NW,315,0.0,0.0,92,0.00,,,0.00,Wunderground v.1.15,2013-08-14 06:25:00,
2013-08-14 01:30:00,48.9,46.7,30.24,NW,315,0.0,0.0,92,0.00,,,0.00,Wunderground v.1.15,2013-08-14 06:30:00,
2013-08-14 01:35:00,48.8,46.6,30.24,NW,315,0.0,0.0,92,0.00,,,0.00,Wunderground v.1.15,2013-08-14 06:35:00,
2013-08-14 01:40:00,48.8,46.6,30.24,NW,315,0.0,0.0,92,0.00,,,0.00,Wunderground v.1.15,2013-08-14 06:40:00,
2013-08-14 01:45:00,48.8,46.6,30.24,NW,315,0.0,0.0,92,0.00,,,0.00,Wunderground v.1.15,2013-08-14 06:45:00,
2013-08-14 01:55:00,48.7,46.5,30.24,NW,315,0.0,0.0,92,0.00,,,0.00,Wunderground v.1.15,2013-08-14 06:55:00,
2013-08-14 02:00:00,48.6,46.4,30.24,NW,315,0.0,0.0,92,0.00,,,0.00,Wunderground v.1.15,2013-08-14 07:00:00,
2013-08-14 02:40:00,47.9,45.7,30.24,NW,315,0.0,0.0,92,0.00,,,0.00,Wunderground v.1.15,2013-08-14 07:40:00,
2013-08-14 02:45:00,47.8,45.6,30.25,NW,315,0.0,0.0,92,0.00,,,0.00,Wunderground v.1.15,2013-08-14 07:45:00,
2013-08-14 02:50:00,47.7,45.5,30.24,NW,315,0.0,0.0,92,0.00,,,0.00,Wunderground v.1.15,2013-08-14 07:50:00,
2013-08-14 02:55:00,47.6,45.4,30.24,NW,315,0.0,0.0,92,0.00,,,0.00,Wunderground v.1.15,2013-08-14 07:55:00,
2013-08-14 03:00:00,47.5,45.3,30.24,NW,315,0.0,0.0,92,0.00,,,0.00,Wunderground v.1.15,2013-08-14 08:00:00,
2013-08-14 03:05:00,47.5,45.3,30.24,NW,315,0.0,0.0,92,0.00,,,0.00,Wunderground v.1.15,2013-08-14 08:05:00,
2013-08-14 03:15:00,47.4,45.2,30.24,NW,315,0.0,0.0,92,0.00,,,0.00,Wunderground v.1.15,2013-08-14 08:15:00,
2013-08-14 03:20:00,47.3,45.1,30.24,NW,315,0.0,0.0,92,0.00,,,0.00,Wunderground v.1.15,2013-08-14 08:20:00,
2013-08-14 03:25:00,47.3,45.1,30.24,NW,315,0.0,0.0,92,0.00,,,0.00,Wunderground v.1.15,2013-08-14 08:25:00,
2013-08-14 03:35:00,47.2,45.3,30.24,NW,315,0.0,0.0,93,0.00,,,0.00,Wunderground v.1.15,2013-08-14 08:35:00,
2013-08-14 03:45:00,47.0,44.8,30.24,NW,315,0.0,0.0,92,0.00,,,0.00,Wunderground v.1.15,2013-08-14 08:45:00,
2013-08-14 03:50:00,47.0,44.8,30.25,NW,315,0.0,0.0,92,0.00,,,0.00,Wunderground v.1.15,2013-08-14 08:50:00,
2013-08-14 03:55:00,46.9,45.0,30.25,NW,315,0.0,0.0,93,0.00,,,0.00,Wunderground v.1.15,2013-08-14 08:55:00,
2013-08-14 04:05:00,46.7,44.8,30.25,NW,315,0.0,0.0,93,0.00,,,0.00,Wunderground v.1.15,2013-08-14 09:05:00,
2013-08-14 04:15:00,46.5,44.3,30.25,NW,315,0.0,0.0,92,0.00,,,0.00,Wunderground v.1.15,2013-08-14 09:15:00,
2013-08-14 04:25:00,46.3,44.4,30.26,NW,315,0.0,0.0,93,0.00,,,0.00,Wunderground v.1.15,2013-08-14 09:25:00,
2013-08-14 04:30:00,46.3,44.4,30.26,NW,315,0.0,0.0,93,0.00,,,0.00,Wunderground v.1.15,2013-08-14 09:30:00,
2013-08-14 04:35:00,46.2,44.3,30.26,NW,315,0.0,0.0,93,0.00,,,0.00,Wunderground v.1.15,2013-08-14 09:35:00,
2013-08-14 04:40:00,46.2,44.3,30.26,NW,315,0.0,0.0,93,0.00,,,0.00,Wunderground v.1.15,2013-08-14 09:40:00,
2013-08-14 04:45:00,46.1,44.2,30.26,NW,315,0.0,0.0,93,0.00,,,0.00,Wunderground v.1.15,2013-08-14 09:45:00,
2013-08-14 04:50:00,46.0,44.1,30.26,NW,315,0.0,0.0,93,0.00,,,0.00,Wunderground v.1.15,2013-08-14 09:50:00,
2013-08-14 04:55:00,46.0,44.1,30.26,NW,315,0.0,0.0,93,0.00,,,0.00,Wunderground v.1.15,2013-08-14 09:55:00,
2013-08-14 05:05:00,45.8,43.9,30.27,NW,315,0.0,0.0,93,0.00,,,0.00,Wunderground v.1.15,2013-08-14 10:05:00,
2013-08-14 05:15:00,45.7,43.8,30.26,NW,315,0.0,0.0,93,0.00,,,0.00,Wunderground v.1.15,2013-08-14 10:15:00,
2013-08-14 05:25:00,45.6,43.7,30.27,NW,315,0.0,0.0,93,0.00,,,0.00,Wunderground v.1.15,2013-08-14 10:25:00,
2013-08-14 05:30:00,45.6,43.7,30.26,NW,315,0.0,0.0,93,0.00,,,0.00,Wunderground v.1.15,2013-08-14 10:30:00,
2013-08-14 05:40:00,45.6,43.7,30.27,NW,315,0.0,0.0,93,0.00,,,0.00,Wunderground v.1.15,2013-08-14 10:40:00,
2013-08-14 05:45:00,45.5,43.6,30.27,NW,315,0.0,0.0,93,0.00,,,0.00,Wunderground v.1.15,2013-08-14 10:45:00,
2013-08-14 05:50:00,45.4,43.5,30.27,NW,315,0.0,0.0,93,0.00,,,0.00,Wunderground v.1.15,2013-08-14 10:50:00,
2013-08-14 05:55:00,45.3,43.4,30.27,NW,315,0.0,0.0,93,0.00,,,0.00,Wunderground v.1.15,2013-08-14 10:55:00,
2013-08-14 06:00:00,45.1,43.2,30.27,NW,315,0.0,0.0,93,0.00,,,0.00,Wunderground v.1.15,2013-08-14 11:00:00,
2013-08-14 06:05:00,45.0,43.1,30.28,NW,315,0.0,0.0,93,0.00,,,0.00,Wunderground v.1.15,2013-08-14 11:05:00,
2013-08-14 06:15:00,45.0,43.1,30.28,NW,315,0.0,0.0,93,0.00,,,0.00,Wunderground v.1.15,2013-08-14 11:15:00,
2013-08-14 06:20:00,45.0,43.1,30.28,NW,315,0.0,0.0,93,0.00,,,0.00,Wunderground v.1.15,2013-08-14 11:20:00,
2013-08-14 06:25:00,44.9,43.0,30.28,NW,315,0.0,0.0,93,0.00,,,0.00,Wunderground v.1.15,2013-08-14 11:25:00,
2013-08-14 06:30:00,44.9,43.0,30.28,NW,315,0.0,0.0,93,0.00,,,0.00,Wunderground v.1.15,2013-08-14 11:30:00,
2013-08-14 06:35:00,44.9,43.0,30.28,NW,315,0.0,0.0,93,0.00,,,0.00,Wunderground v.1.15,2013-08-14 11:35:00,
2013-08-14 06:45:00,44.9,43.0,30.28,NW,315,0.0,0.0,93,0.00,,,0.00,Wunderground v.1.15,2013-08-14 11:45:00,
2013-08-14 06:50:00,45.0,43.1,30.28,NW,315,0.0,0.0,93,0.00,,,0.00,Wunderground v.1.15,2013-08-14 11:50:00,
2013-08-14 06:55:00,45.0,43.1,30.28,NW,315,0.0,0.0,93,0.00,,,0.00,Wunderground v.1.15,2013-08-14 11:55:00,
2013-08-14 07:00:00,45.2,43.3,30.28,NW,315,0.0,0.0,93,0.00,,,0.00,Wunderground v.1.15,2013-08-14 12:00:00,
2013-08-14 07:05:00,45.2,43.3,30.28,NW,315,0.0,0.0,93,0.00,,,0.00,Wunderground v.1.15,2013-08-14 12:05:00,
2013-08-14 07:15:00,45.7,43.8,30.28,NW,315,0.0,0.0,93,0.00,,,0.00,Wunderground v.1.15,2013-08-14 12:15:00,
2013-08-14 07:20:00,46.0,44.1,30.28,NW,315,0.0,0.0,93,0.00,,,0.00,Wunderground v.1.15,2013-08-14 12:20:00,
2013-08-14 07:25:00,46.2,44.3,30.28,NW,315,0.0,0.0,93,0.00,,,0.00,Wunderground v.1.15,2013-08-14 12:25:00,
2013-08-14 07:30:00,46.9,45.3,30.28,NW,315,0.0,0.0,94,0.00,,,0.00,Wunderground v.1.15,2013-08-14 12:30:00,
2013-08-14 07:40:00,48.5,46.9,30.28,NW,315,0.0,0.0,94,0.00,,,0.00,Wunderground v.1.15,2013-08-14 12:40:00,
2013-08-14 07:45:00,49.2,47.5,30.28,NW,315,0.0,0.0,94,0.00,,,0.00,Wunderground v.1.15,2013-08-14 12:45:00,
2013-08-14 07:50:00,49.8,48.1,30.29,NW,315,0.0,0.0,94,0.00,,,0.00,Wunderground v.1.15,2013-08-14 12:50:00,
2013-08-14 08:00:00,51.8,50.1,30.29,NW,315,0.0,0.0,94,0.00,,,0.00,Wunderground v.1.15,2013-08-14 13:00:00,
2013-08-14 08:05:00,52.9,51.2,30.28,NW,315,0.0,0.0,94,0.00,,,0.00,Wunderground v.1.15,2013-08-14 13:05:00,
2013-08-14 08:15:00,54.6,52.9,30.28,NW,315,0.0,0.0,94,0.00,,,0.00,Wunderground v.1.15,2013-08-14 13:15:00,
2013-08-14 08:20:00,55.9,54.5,30.28,NW,315,0.0,0.0,95,0.00,,,0.00,Wunderground v.1.15,2013-08-14 13:20:00,
2013-08-14 08:25:00,56.8,55.1,30.28,NW,315,0.0,0.0,94,0.00,,,0.00,Wunderground v.1.15,2013-08-14 13:25:00,
2013-08-14 08:35:00,57.7,56.0,30.28,West,279,0.0,0.0,94,0.00,,,0.00,Wunderground v.1.15,2013-08-14 13:35:00,
2013-08-14 08:40:00,58.6,56.6,30.28,West,276,0.0,0.0,93,0.00,,,0.00,Wunderground v.1.15,2013-08-14 13:40:00,
2013-08-14 08:45:00,59.0,56.1,30.29,West,275,0.0,0.0,90,0.00,,,0.00,Wunderground v.1.15,2013-08-14 13:45:00,
2013-08-14 08:50:00,59.4,56.2,30.29,West,275,0.0,0.0,89,0.00,,,0.00,Wunderground v.1.15,2013-08-14 13:50:00,
2013-08-14 08:55:00,60.2,56.3,30.29,West,275,0.0,0.0,87,0.00,,,0.00,Wunderground v.1.15,2013-08-14 13:55:00,
2013-08-14 09:00:00,60.8,56.3,30.29,WSW,249,0.0,0.0,85,0.00,,,0.00,Wunderground v.1.15,2013-08-14 14:00:00,
2013-08-14 09:05:00,60.9,55.7,30.29,WSW,248,0.0,0.0,83,0.00,,,0.00,Wunderground v.1.15,2013-08-14 14:05:00,
2013-08-14 09:15:00,61.5,56.3,30.29,WSW,248,0.0,0.0,83,0.00,,,0.00,Wunderground v.1.15,2013-08-14 14:15:00,
2013-08-14 09:20:00,61.5,56.0,30.29,WSW,248,0.0,0.0,82,0.00,,,0.00,Wunderground v.1.15,2013-08-14 14:20:00,
2013-08-14 09:30:00,62.0,56.4,30.30,WSW,250,0.0,0.0,82,0.00,,,0.00,Wunderground v.1.15,2013-08-14 14:30:00,
2013-08-14 09:35:00,62.3,56.4,30.30,WSW,250,0.0,0.0,81,0.00,,,0.00,Wunderground v.1.15,2013-08-14 14:35:00,
2013-08-14 09:40:00,62.5,56.6,30.30,WSW,250,0.0,0.0,81,0.00,,,0.00,Wunderground v.1.15,2013-08-14 14:40:00,
2013-08-14 09:45:00,62.6,56.0,30.30,WSW,250,0.0,0.0,79,0.00,,,0.00,Wunderground v.1.15,2013-08-14 14:45:00,
2013-08-14 09:50:00,63.0,56.7,30.30,WSW,250,0.0,2.0,80,0.00,,,0.00,Wunderground v.1.15,2013-08-14 14:50:00,
2013-08-14 10:15:00,64.5,55.7,30.30,WSW,250,0.0,0.0,73,0.00,,,0.00,Wunderground v.1.15,2013-08-14 15:15:00,
2013-08-14 10:25:00,64.9,55.7,30.30,WSW,250,0.0,0.0,72,0.00,,,0.00,Wunderground v.1.15,2013-08-14 15:25:00,
2013-08-14 10:30:00,65.0,55.4,30.30,WSW,250,0.0,0.0,71,0.00,,,0.00,Wunderground v.1.15,2013-08-14 15:30:00,
2013-08-14 10:40:00,65.5,55.1,30.30,WSW,250,0.0,0.0,69,0.00,,,0.00,Wunderground v.1.15,2013-08-14 15:40:00,
2013-08-14 10:45:00,66.0,54.7,30.30,WSW,249,0.0,0.0,67,0.00,,,0.00,Wunderground v.1.15,2013-08-14 15:45:00,
2013-08-14 10:50:00,66.5,54.8,30.30,WSW,248,0.0,1.0,66,0.00,,,0.00,Wunderground v.1.15,2013-08-14 15:50:00,
2013-08-14 10:55:00,66.9,55.2,30.30,WSW,248,0.0,0.0,66,0.00,,,0.00,Wunderground v.1.15,2013-08-14 15:55:00,
2013-08-14 11:00:00,67.2,55.5,30.30,WSW,248,0.0,0.0,66,0.00,,,0.00,Wunderground v.1.15,2013-08-14 16:00:00,
2013-08-14 11:05:00,68.1,55.5,30.29,WSW,248,0.0,0.0,64,0.00,,,0.00,Wunderground v.1.15,2013-08-14 16:05:00,
2013-08-14 11:15:00,69.8,56.2,30.30,WSW,253,0.0,0.0,62,0.00,,,0.00,Wunderground v.1.15,2013-08-14 16:15:00,
2013-08-14 11:20:00,71.0,55.5,30.30,West,259,0.0,0.0,58,0.00,,,0.00,Wunderground v.1.15,2013-08-14 16:20:00,
2013-08-14 11:25:00,71.2,56.1,30.30,West,259,0.0,0.0,59,0.00,,,0.00,Wunderground v.1.15,2013-08-14 16:25:00,
2013-08-14 11:30:00,72.2,55.6,30.30,West,259,0.0,0.0,56,0.00,,,0.00,Wunderground v.1.15,2013-08-14 16:30:00,
2013-08-14 11:40:00,71.5,54.5,30.29,WNW,284,0.0,0.0,55,0.00,,,0.00,Wunderground v.1.15,2013-08-14 16:40:00,
2013-08-14 11:45:00,70.9,54.9,30.29,WNW,284,0.0,0.0,57,0.00,,,0.00,Wunderground v.1.15,2013-08-14 16:45:00,
2013-08-14 11:50:00,70.5,55.9,30.29,WNW,284,0.0,0.0,60,0.00,,,0.00,Wunderground v.1.15,2013-08-14 16:50:00,
2013-08-14 11:55:00,70.1,55.6,30.29,WNW,284,0.0,0.0,60,0.00,,,0.00,Wunderground v.1.15,2013-08-14 16:55:00,
2013-08-14 12:05:00,70.8,55.3,30.28,WNW,284,0.0,0.0,58,0.00,,,0.00,Wunderground v.1.15,2013-08-14 17:05:00,
2013-08-14 12:15:00,70.6,53.1,30.28,WNW,288,0.0,3.0,54,0.00,,,0.00,Wunderground v.1.15,2013-08-14 17:15:00,
2013-08-14 12:20:00,70.5,54.0,30.28,WNW,298,0.0,0.0,56,0.00,,,0.00,Wunderground v.1.15,2013-08-14 17:20:00,
2013-08-14 12:25:00,70.7,53.2,30.28,WNW,298,0.0,0.0,54,0.00,,,0.00,Wunderground v.1.15,2013-08-14 17:25:00,
2013-08-14 12:30:00,70.6,53.1,30.28,NW,317,0.0,0.0,54,0.00,,,0.00,Wunderground v.1.15,2013-08-14 17:30:00,
2013-08-14 12:35:00,70.5,53.1,30.28,NW,317,0.0,0.0,54,0.00,,,0.00,Wunderground v.1.15,2013-08-14 17:35:00,
2013-08-14 12:45:00,70.8,53.3,30.28,NW,317,0.0,0.0,54,0.00,,,0.00,Wunderground v.1.15,2013-08-14 17:45:00,
2013-08-14 12:50:00,71.3,51.7,30.27,NNW,346,0.0,0.0,50,0.00,,,0.00,Wunderground v.1.15,2013-08-14 17:50:00,
2013-08-14 12:55:00,72.0,54.4,30.27,NNW,346,0.0,0.0,54,0.00,,,0.00,Wunderground v.1.15,2013-08-14 17:55:00,
2013-08-14 13:05:00,72.3,53.2,30.27,NNW,346,0.0,0.0,51,0.00,,,0.00,Wunderground v.1.15,2013-08-14 18:05:00,
2013-08-14 13:15:00,71.5,54.0,30.27,NNW,346,0.0,0.0,54,0.00,,,0.00,Wunderground v.1.15,2013-08-14 18:15:00,
2013-08-14 13:30:00,73.0,53.8,30.27,NNW,346,0.0,0.0,51,0.00,,,0.00,Wunderground v.1.15,2013-08-14 18:30:00,
2013-08-14 13:35:00,74.2,53.2,30.27,NNW,346,1.0,1.0,48,0.00,,,0.00,Wunderground v.1.15,2013-08-14 18:35:00,
2013-08-14 13:45:00,76.8,53.8,30.26,North,355,0.0,1.0,45,0.00,,,0.00,Wunderground v.1.15,2013-08-14 18:45:00,
2013-08-14 13:50:00,76.7,55.0,30.26,North,355,0.0,0.0,47,0.00,,,0.00,Wunderground v.1.15,2013-08-14 18:50:00,
2013-08-14 14:00:00,76.0,53.1,30.26,North,355,0.0,0.0,45,0.00,,,0.00,Wunderground v.1.15,2013-08-14 19:00:00,
2013-08-14 14:15:00,76.0,52.5,30.26,North,355,1.0,1.0,44,0.00,,,0.00,Wunderground v.1.15,2013-08-14 19:15:00,
2013-08-14 14:40:00,71.9,53.8,30.25,North,350,1.0,1.0,53,0.00,,,0.00,Wunderground v.1.15,2013-08-14 19:40:00,
2013-08-14 14:45:00,72.4,53.2,30.25,North,350,1.0,1.0,51,0.00,,,0.00,Wunderground v.1.15,2013-08-14 19:45:00,
2013-08-14 14:55:00,74.6,54.2,30.25,North,349,0.0,0.0,49,0.00,,,0.00,Wunderground v.1.15,2013-08-14 19:55:00,
2013-08-14 15:00:00,75.4,53.2,30.24,North,349,0.0,0.0,46,0.00,,,0.00,Wunderground v.1.15,2013-08-14 20:00:00,
2013-08-14 15:05:00,76.4,53.5,30.24,North,349,0.0,0.0,45,0.00,,,0.00,Wunderground v.1.15,2013-08-14 20:05:00,
2013-08-14 15:15:00,77.2,54.8,30.24,North,349,0.0,0.0,46,0.00,,,0.00,Wunderground v.1.15,2013-08-14 20:15:00,
2013-08-14 15:25:00,77.9,53.0,30.24,North,349,0.0,0.0,42,0.00,,,0.00,Wunderground v.1.15,2013-08-14 20:25:00,
2013-08-14 15:35:00,77.1,53.5,30.23,North,349,0.0,1.0,44,0.00,,,0.00,Wunderground v.1.15,2013-08-14 20:35:00,
2013-08-14 15:40:00,76.8,52.0,30.23,North,349,0.0,0.0,42,0.00,,,0.00,Wunderground v.1.15,2013-08-14 20:40:00,
2013-08-14 15:45:00,76.8,55.0,30.23,North,349,0.0,0.0,47,0.00,,,0.00,Wunderground v.1.15,2013-08-14 20:45:00,
2013-08-14 15:55:00,76.9,54.5,30.23,NNW,346,0.0,0.0,46,0.00,,,0.00,Wunderground v.1.15,2013-08-14 20:55:00,
2013-08-14 16:00:00,77.2,53.0,30.23,NNW,346,0.0,0.0,43,0.00,,,0.00,Wunderground v.1.15,2013-08-14 21:00:00,
2013-08-14 16:05:00,76.6,53.1,30.23,NNW,346,0.0,0.0,44,0.00,,,0.00,Wunderground v.1.15,2013-08-14 21:05:00,
2013-08-14 16:15:00,76.5,55.3,30.23,NNW,346,0.0,0.0,48,0.00,,,0.00,Wunderground v.1.15,2013-08-14 21:15:00,
2013-08-14 16:20:00,76.3,54.6,30.23,NNW,345,0.0,0.0,47,0.00,,,0.00,Wunderground v.1.15,2013-08-14 21:20:00,
2013-08-14 16:25:00,75.5,53.3,30.23,NNW,346,0.0,0.0,46,0.00,,,0.00,Wunderground v.1.15,2013-08-14 21:25:00,
2013-08-14 16:30:00,74.8,53.8,30.23,NNW,345,0.0,0.0,48,0.00,,,0.00,Wunderground v.1.15,2013-08-14 21:30:00,
2013-08-14 16:35:00,74.7,55.4,30.22,NNW,346,0.0,0.0,51,0.00,,,0.00,Wunderground v.1.15,2013-08-14 21:35:00,
2013-08-14 16:40:00,74.7,53.7,30.22,NNW,345,0.0,0.0,48,0.00,,,0.00,Wunderground v.1.15,2013-08-14 21:40:00,
2013-08-14 16:50:00,75.1,52.9,30.22,NNW,346,1.0,1.0,46,0.00,,,0.00,Wunderground v.1.15,2013-08-14 21:50:00,
2013-08-14 16:55:00,74.8,52.6,30.22,NNW,345,1.0,1.0,46,0.00,,,0.00,Wunderground v.1.15,2013-08-14 21:55:00,
2013-08-14 17:00:00,74.9,53.3,30.22,NNW,346,0.0,0.0,47,0.00,,,0.00,Wunderground v.1.15,2013-08-14 22:00:00,
2013-08-14 17:05:00,75.5,53.9,30.22,NNW,345,0.0,0.0,47,0.00,,,0.00,Wunderground v.1.15,2013-08-14 22:05:00,
2013-08-14 17:15:00,76.6,56.0,30.22,NNW,345,0.0,0.0,49,0.00,,,0.00,Wunderground v.1.15,2013-08-14 22:15:00,
2013-08-14 17:25:00,75.2,56.4,30.22,NNW,346,0.0,0.0,52,0.00,,,0.00,Wunderground v.1.15,2013-08-14 22:25:00,
2013-08-14 17:30:00,73.9,57.2,30.22,NNW,346,0.0,0.0,56,0.00,,,0.00,Wunderground v.1.15,2013-08-14 22:30:00,
2013-08-14 17:40:00,71.3,55.8,30.21,NNW,345,0.0,0.0,58,0.00,,,0.00,Wunderground v.1.15,2013-08-14 22:40:00,
2013-08-14 17:45:00,71.2,57.1,30.21,NNW,346,0.0,0.0,61,0.00,,,0.00,Wunderground v.1.15,2013-08-14 22:45:00,
2013-08-14 17:50:00,71.3,56.2,30.21,NNW,346,0.0,0.0,59,0.00,,,0.00,Wunderground v.1.15,2013-08-14 22:50:00,
2013-08-14 17:55:00,71.2,58.0,30.21,NNW,345,0.0,0.0,63,0.00,,,0.00,Wunderground v.1.15,2013-08-14 22:55:00,
2013-08-14 18:05:00,70.1,56.9,30.21,NNW,345,0.0,0.0,63,0.00,,,0.00,Wunderground v.1.15,2013-08-14 23:05:00,
2013-08-14 18:15:00,69.2,58.6,30.20,NNW,346,0.0,0.0,69,0.00,,,0.00,Wunderground v.1.15,2013-08-14 23:15:00,
2013-08-14 18:20:00,68.8,59.4,30.20,NNW,345,0.0,0.0,72,0.00,,,0.00,Wunderground v.1.15,2013-08-14 23:20:00,
2013-08-14 18:25:00,68.5,59.5,30.20,NNW,346,0.0,0.0,73,0.00,,,0.00,Wunderground v.1.15,2013-08-14 23:25:00,
2013-08-14 18:30:00,68.4,59.4,30.21,NNW,345,0.0,0.0,73,0.00,,,0.00,Wunderground v.1.15,2013-08-14 23:30:00,
2013-08-14 18:35:00,68.3,59.3,30.20,NNW,346,0.0,0.0,73,0.00,,,0.00,Wunderground v.1.15,2013-08-14 23:35:00,
2013-08-14 18:45:00,68.4,59.8,30.20,NNW,346,0.0,0.0,74,0.00,,,0.00,Wunderground v.1.15,2013-08-14 23:45:00,
2013-08-14 18:50:00,68.4,60.2,30.20,NNW,346,0.0,0.0,75,0.00,,,0.00,Wunderground v.1.15,2013-08-14 23:50:00,
2013-08-14 18:55:00,68.3,60.1,30.20,NNW,345,0.0,0.0,75,0.00,,,0.00,Wunderground v.1.15,2013-08-14 23:55:00,
2013-08-14 19:00:00,68.0,60.2,30.21,NNW,346,0.0,0.0,76,0.00,,,0.00,Wunderground v.1.15,2013-08-15 00:00:00,
2013-08-14 19:05:00,67.7,59.9,30.21,NNW,345,0.0,0.0,76,0.00,,,0.00,Wunderground v.1.15,2013-08-15 00:05:00,
2013-08-14 19:15:00,66.9,59.5,30.21,NNW,346,0.0,0.0,77,0.00,,,0.00,Wunderground v.1.15,2013-08-15 00:15:00,
2013-08-14 19:20:00,66.5,59.1,30.21,NNW,346,0.0,0.0,77,0.00,,,0.00,Wunderground v.1.15,2013-08-15 00:20:00,
2013-08-14 19:25:00,66.1,58.7,30.21,NNW,346,0.0,0.0,77,0.00,,,0.00,Wunderground v.1.15,2013-08-15 00:25:00,
2013-08-14 19:35:00,65.1,58.1,30.20,NNW,346,0.0,0.0,78,0.00,,,0.00,Wunderground v.1.15,2013-08-15 00:35:00,
2013-08-14 19:40:00,64.6,57.9,30.20,NNW,345,0.0,0.0,79,0.00,,,0.00,Wunderground v.1.15,2013-08-15 00:40:00,
2013-08-14 19:50:00,63.8,57.5,30.20,NNW,345,0.0,0.0,80,0.00,,,0.00,Wunderground v.1.15,2013-08-15 00:50:00,
2013-08-14 19:55:00,63.3,57.4,30.20,NNW,346,0.0,0.0,81,0.00,,,0.00,Wunderground v.1.15,2013-08-15 00:55:00,
2013-08-14 20:05:00,62.5,56.9,30.20,NNW,346,0.0,0.0,82,0.00,,,0.00,Wunderground v.1.15,2013-08-15 01:05:00,
2013-08-14 20:15:00,61.6,56.0,30.20,NNW,346,0.0,0.0,82,0.00,,,0.00,Wunderground v.1.15,2013-08-15 01:15:00,
2013-08-14 20:20:00,61.1,55.9,30.20,NNW,346,0.0,0.0,83,0.00,,,0.00,Wunderground v.1.15,2013-08-15 01:20:00,
2013-08-14 20:25:00,60.7,55.5,30.20,NNW,346,0.0,0.0,83,0.00,,,0.00,Wunderground v.1.15,2013-08-15 01:25:00,
2013-08-14 20:30:00,60.3,55.4,30.21,NNW,345,0.0,0.0,84,0.00,,,0.00,Wunderground v.1.15,2013-08-15 01:30:00,
2013-08-14 20:40:00,59.5,55.0,30.21,NNW,346,0.0,0.0,85,0.00,,,0.00,Wunderground v.1.15,2013-08-15 01:40:00,
2013-08-14 20:45:00,59.0,54.5,30.21,NNW,346,0.0,0.0,85,0.00,,,0.00,Wunderground v.1.15,2013-08-15 01:45:00,
2013-08-14 20:50:00,59.0,54.8,30.21,NNW,345,0.0,0.0,86,0.00,,,0.00,Wunderground v.1.15,2013-08-15 01:50:00,
2013-08-14 20:55:00,58.6,54.4,30.21,NNW,346,0.0,0.0,86,0.00,,,0.00,Wunderground v.1.15,2013-08-15 01:55:00,
2013-08-14 21:05:00,58.0,54.2,30.21,NNW,346,0.0,0.0,87,0.00,,,0.00,Wunderground v.1.15,2013-08-15 02:05:00,
2013-08-14 21:15:00,57.4,53.9,30.21,NNW,345,0.0,0.0,88,0.00,,,0.00,Wunderground v.1.15,2013-08-15 02:15:00,
2013-08-14 21:25:00,57.0,53.8,30.22,NNW,345,0.0,0.0,89,0.00,,,0.00,Wunderground v.1.15,2013-08-15 02:25:00,
2013-08-14 21:30:00,56.8,53.6,30.22,NNW,346,0.0,0.0,89,0.00,,,0.00,Wunderground v.1.15,2013-08-15 02:30:00,
2013-08-14 21:40:00,56.5,53.3,30.22,NNW,346,0.0,0.0,89,0.00,,,0.00,Wunderground v.1.15,2013-08-15 02:40:00,
2013-08-14 21:45:00,56.2,53.0,30.22,NNW,345,0.0,0.0,89,0.00,,,0.00,Wunderground v.1.15,2013-08-15 02:45:00,
2013-08-14 21:50:00,56.0,52.8,30.22,NNW,346,0.0,0.0,89,0.00,,,0.00,Wunderground v.1.15,2013-08-15 02:50:00,
2013-08-14 21:55:00,55.9,53.0,30.22,NNW,345,0.0,0.0,90,0.00,,,0.00,Wunderground v.1.15,2013-08-15 02:55:00,
2013-08-14 22:00:00,55.7,52.8,30.22,NNW,345,0.0,0.0,90,0.00,,,0.00,Wunderground v.1.15,2013-08-15 03:00:00,
2013-08-14 22:05:00,55.5,52.6,30.22,NNW,346,0.0,0.0,90,0.00,,,0.00,Wunderground v.1.15,2013-08-15 03:05:00,
2013-08-14 22:15:00,55.3,52.4,30.22,NNW,346,0.0,0.0,90,0.00,,,0.00,Wunderground v.1.15,2013-08-15 03:15:00,
2013-08-14 22:20:00,55.2,52.3,30.22,NNW,346,0.0,0.0,90,0.00,,,0.00,Wunderground v.1.15,2013-08-15 03:20:00,
2013-08-14 22:29:00,54.8,51.9,30.22,NNW,346,0.0,0.0,90,0.00,,,0.00,Wunderground v.1.15,2013-08-15 03:29:00,
2013-08-14 22:34:00,54.7,52.1,30.22,NNW,346,0.0,0.0,91,0.00,,,0.00,Wunderground v.1.15,2013-08-15 03:34:00,
2013-08-14 22:40:00,54.6,52.0,30.22,NNW,346,0.0,0.0,91,0.00,,,0.00,Wunderground v.1.15,2013-08-15 03:40:00,
2013-08-14 22:45:00,54.5,51.9,30.22,NNW,346,0.0,0.0,91,0.00,,,0.00,Wunderground v.1.15,2013-08-15 03:45:00,
2013-08-14 22:50:00,54.4,51.8,30.22,NNW,346,0.0,0.0,91,0.00,,,0.00,Wunderground v.1.15,2013-08-15 03:50:00,
2013-08-14 22:55:00,54.2,51.6,30.22,NNW,345,0.0,0.0,91,0.00,,,0.00,Wunderground v.1.15,2013-08-15 03:55:00,
2013-08-14 23:00:00,54.1,51.5,30.22,NNW,346,0.0,0.0,91,0.00,,,0.00,Wunderground v.1.15,2013-08-15 04:00:00,
2013-08-14 23:05:00,54.0,51.4,30.22,NNW,346,0.0,0.0,91,0.00,,,0.00,Wunderground v.1.15,2013-08-15 04:05:00,
2013-08-14 23:10:00,53.9,51.3,30.22,NNW,346,0.0,0.0,91,0.00,,,0.00,Wunderground v.1.15,2013-08-15 04:10:00,
2013-08-14 23:15:00,53.8,51.2,30.22,NNW,346,0.0,0.0,91,0.00,,,0.00,Wunderground v.1.15,2013-08-15 04:15:00,
2013-08-14 23:20:00,53.6,51.0,30.22,NNW,346,0.0,0.0,91,0.00,,,0.00,Wunderground v.1.15,2013-08-15 04:20:00,
2013-08-14 23:30:00,53.4,50.8,30.22,NNW,346,0.0,0.0,91,0.00,,,0.00,Wunderground v.1.15,2013-08-15 04:30:00,
2013-08-14 23:40:00,53.2,50.6,30.23,NNW,346,0.0,0.0,91,0.00,,,0.00,Wunderground v.1.15,2013-08-15 04:40:00,
2013-08-14 23:45:00,53.1,50.5,30.23,NNW,345,0.0,0.0,91,0.00,,,0.00,Wunderground v.1.15,2013-08-15 04:45:00,
2013-08-14 23:55:00,52.9,50.3,30.23,NNW,346,0.0,0.0,91,0.00,,,0.00,Wunderground v.1.15,2013-08-15 04:55:00,